Location: Drocourt
(49.0571°N, 1.7669°E)
Time: 10:24:37
(UTC+00:00)

MOS 1-B - Pass Details

Date: 09 February 2023
Orbit: 904 x 913 km, 99.4° (Epoch: 23 March)

Event Time Altitude Azimuth Distance (km) Brightness Sun altitude
Rises 18:45:48 0° 166° (SSE) 3,530 7.3 -17.3°
Reaches altitude 10° 18:48:12 10° 167° (SSE) 2,593 6.6 -17.6°
Maximum altitude 18:54:00 79° 254° (WSW) 935 4.5 -18.6°
Drops below altitude 10° 18:59:52 10° 342° (NNW) 2,615 7.0 -19.6°
Sets 19:02:18 0° 344° (NNW) 3,561 7.7 -19.9°
